Tracking 19226 objects as of 23-Jul-2018
HD Live streaming from Space Station
objects crossing your sky now

NADEZHDA 7

Track NADEZHDA 7 now!
10-day predictions
NADEZHDA 7 is classified as:


NORAD ID: 27534
Int'l Code: 2002-046A
Perigee: 969.3 km
Apogee: 1,024.7 km
Inclination: 82.9 °
Period: 104.9 minutes
Semi major axis: 7368 km
RCS: 1.9312 m2 (large)
Launch date: September 26, 2002
Source: Commonwealth of Independent States (former USSR) (CIS)
Launch site: PLESETSK MISSILE AND SPACE COMPLEX (PKMTR)
aabbcc
Your satellite tracking list
Your tracking list is empty




NASA's NSSDC Master Catalog

Two Line Element Set (TLE):
1 27534U 02046A   18203.80712459 +.00000019 +00000-0 +33438-5 0  9999
2 27534 082.9370 303.1650 0037574 073.9392 040.7769 13.72701197792558
Source of the keplerian elements: AFSPC